Preview of NWS' New Version of Forecast
This preview is not operational and should not be used for support decisions.

Regional Weather Roundup (RWR)

Issued by Gray - Portland, ME (GYX)

                            
000
ASUS41 KGYX 220510
RWRGYX
WEATHER ROUNDUP FOR MAINE AND NEW HAMPSHIRE
NATIONAL WEATHER SERVICE GRAY ME
100 AM EDT MON JUL 22 2019

MEZ002-005-006-010-012-015-018-020-021-024-026-027-029-220600-
MAINE
  
CITY           SKY/WX    TMP DP  RH WIND       PRES   REMARKS
PORTLAND       MOCLDY    77  64  64 NW8       29.78S                  
SANFORD        FAIR      72  65  78 NW6       29.81                   
BAR HARBOR     MOCLDY    67  65  93 CALM      29.78R                  
WISCASSET      MOCLDY    70  66  87 CALM      29.80R                  
ROCKLAND       MOCLDY    69  66  90 W3        29.78S                  
FRYEBURG       FAIR      67  63  87 W5        29.82S                  
LEWISTONAUBURN FAIR      72  63  73 CALM      29.80S                  
AUGUSTA        FAIR      72  64  76 CALM      29.80S                  
WATERVILLE     FAIR      69  62  78 N5        29.77S                  
BANGOR         FAIR      68  66  93 SW5       29.79R                  
GREENVILLE       N/A     64  61  90 NW5       29.81R                  
MILLINOCKET    FAIR      65  62  90 W3        29.80R                  
HOULTON        CLOUDY    63  62  97 CALM      29.76S                  
PRESQUE ISLE   MOCLDY    59  58  96 S5        29.79R                  
FRENCHVILLE    FAIR      60  55  83 NW8       29.78R                  
CARIBOU        FAIR      62  57  83 W3        29.77R                  
$$

NHZ002-005-008-009-011-012-014-220600-
NEW HAMPSHIRE
  
CITY           SKY/WX    TMP DP  RH WIND       PRES   REMARKS
PORTSMOUTH     PTCLDY    75  62  65 CALM      29.78S                  
ROCHESTER      FAIR      75  62  64 NW7       29.80S                  
NASHUA         FAIR      73  71  93 W5        29.82S                  
MANCHESTER     FAIR      80  65  59 NW5       29.81R                  
CONCORD        FAIR      69  65  86 E3        29.83S                  
LACONIA        FAIR      72  66  81 W6        29.84S                  
PLYMOUTH       MOCLDY    67  64  90 CALM      29.84S                  
BERLIN         FAIR      60  57  89 N3        29.85F                  
WHITEFIELD     FAIR      61  59  93 CALM      29.86S                  
JAFFREY        FAIR      71  65  81 CALM      29.87S                  
KEENE          FAIR      69  67  93 CALM      29.85R                  
LEBANON        MOCLDY    69  63  81 CALM      29.85S                  
MT WASHINGTON  FOG       50  50 100 NW40        N/A  VSB 0            
$$

VTZ005-007-008-220600-
VERMONT
  
CITY           SKY/WX    TMP DP  RH WIND       PRES   REMARKS
ST JOHNSBURY     N/A     65  64  97 MISG      29.84S                  
MONTPELIER     CLOUDY    65  64  97 W3        29.91S                  
BURLINGTON     FAIR      74  61  63 N6        29.86R                  
$$

MAZ007-012-024-CTZ003-RIZ002-NYZ038-NYZ072-220600-
SOUTHERN NEW ENGLAND AND NY
  
CITY           SKY/WX    TMP DP  RH WIND       PRES   REMARKS
BOSTON         MOCLDY    84  67  56 NW9       29.79R                  
WORCESTER      FAIR      74  61  63 NW12      29.87R                  
NANTUCKET      FAIR      74  72  93 W9        29.79S                  
PROVIDENCE     FAIR      82  66  58 W5        29.82R                  
HARTFORD       MOCLDY    78  59  51 N5        29.84R                  
ALBANY         FAIR      74  57  55 CALM      29.87R                  
NEW YORK CITY  CLOUDY    84  69  60 NW6       29.86R                  
$$

ANZ081-ANZ082-ANZ150-NHZ014-MEZ023>029-220600-
COASTAL MARINE OBSERVATIONS
  
STATION/POSITION TIME  TEMP    WIND        PRES    WAVE
                       AIR SEA DIR/SP/G            HT/PER
                 (UTC) (F)     (DEG/KT/KT) (MB)    (FT/S)
ISLE OF SHOALS   0400   80     320/ 11/ 11 1008.1R
JEFFREYS LEDGE   0438      69                N/A     2/ 6
CASHES LEDGE BUO 0450   65 60  270/  4/  6 1008.6F   2/ 6
GEORGES BANK BUO 0450   62 60  270/  6/  8 1009.4R   3/ 6
$$

.............KEY..............
   WCI - WIND CHILL
   TC  - TEMPERATURE IN CELSIUS
   VSB - VISIBILITY IN MILES
   HX  - HEAT INDEX
   FAIR- INDICATES FEW OR NO CLOUDS BELOW 12,000 FT, WITH NO 
         SIGNIFICANT WEATHER AND/OR OBSTRUCTIONS TO VISIBILITY.